KD8UYA Weather Reports


Display with metric or nautical units.
time (UTC)temp
F
wind
direction
speed
MPH
gust
MPH
rain 1hr
in
rain 24hr
in
rain mn
in
humidity
%
barometer
mb
20260504203053 71 254 5.0 15.0 0.00 0.00 0.00 57 1002.4
20260504201551 70 274 8.0 24.0 0.00 0.00 0.00 56 1002.8
20260504200055 71 212 7.0 15.0 0.00 0.00 0.00 54 1002.7
20260504194552 71 203 5.0 12.0 0.00 0.00 0.00 55 1002.9
20260504193047 70 252 3.0 13.0 0.00 0.00 0.00 56 1003.1
20260504191544 70 278 5.0 13.0 0.00 0.00 0.00 55 1003.4
20260504190050 70 234 5.0 14.0 0.00 0.00 0.00 56 1003.6
20260504184539 70 196 7.0 20.0 0.00 0.00 0.00 56 1003.9
20260504183036 69 317 5.0 13.0 0.00 0.00 0.00 58 1003.9
20260504181533 68 226 3.0 12.0 0.00 0.00 0.00 58 1004.1
20260504180031 67 151 9.0 17.0 0.00 0.00 0.00 57 1004.2
20260504174530 68 234 4.0 14.0 0.00 0.00 0.00 59 1004.4
20260504173028 67 305 4.0 10.0 0.00 0.00 0.00 58 1004.6
20260504171537 67 197 7.0 16.0 0.00 0.00 0.00 58 1004.6
20260504150105 61 235 4.0 11.0 0.00 0.00 0.00 63 1006.1
20260504081559 50 272 3.0 8.0 0.00 0.00 0.00 68 1007.5
20260504044535 49 305 2.0 9.0 0.00 0.00 0.00 72 1010.1
20260504043026 50 251 3.0 9.0 0.00 0.00 0.00 70 1010.2
20260504041528 50 287 4.0 9.0 0.00 0.00 0.00 69 1010.3
20260504040023 50 236 2.0 7.0 0.00 0.00 0.00 70 1010.5
20260504034518 51 217 2.0 7.0 0.00 0.00 0.00 69 1010.6
20260504033022 51 256 2.0 6.0 0.00 0.00 0.00 68 1010.7
20260504031518 51 242 1.0 7.0 0.00 0.00 0.00 69 1010.9
20260504030028 51 316 1.0 7.0 0.00 0.00 0.00 70 1011.1
20260504024517 50 220 2.0 6.0 0.00 0.00 0.00 69 1011.1
20260504023016 50 205 2.0 8.0 0.00 0.00 0.00 69 1011.2
20260504021516 50 202 5.0 12.0 0.00 0.00 0.00 68 1011.3
20260504020019 51 296 4.0 12.0 0.00 0.00 0.00 67 1011.3
20260504014514 51 319 5.0 16.0 0.00 0.00 0.00 64 1011.3
20260504013015 51 259 5.0 12.0 0.00 0.00 0.00 65 1011.1
20260504011514 52 265 0.0 0.0 0.00 0.00 0.00 62 1010.6
20260504010014 53 265 0.0 0.0 0.00 0.00 0.00 59 1010.7
20260504004520 54 268 0.0 4.0 0.00 0.00 0.00 54 1010.7
20260504003012 55 230 2.0 9.0 0.00 0.00 0.00 52 1010.6
20260504001512 55 236 2.0 6.0 0.00 0.00 0.00 50 1010.6
20260504000012 56 286 2.0 9.0 0.00 0.00 0.00 49 1010.7
20260503234521 57 284 6.0 15.0 0.00 0.00 0.00 48 1010.7
20260503233009 58 231 7.0 14.0 0.00 0.00 0.00 47 1010.8
20260503231509 58 244 4.0 12.0 0.00 0.00 0.00 47 1010.9
20260503230011 57 242 5.0 18.0 0.00 0.00 0.00 48 1011.0
20260503224510 57 240 5.0 16.0 0.00 0.00 0.00 48 1011.1
20260503223007 57 256 3.0 15.0 0.00 0.00 0.00 49 1011.2
20260503221505 57 259 4.0 14.0 0.00 0.00 0.00 48 1011.2
20260503220020 58 270 7.0 14.0 0.00 0.00 0.00 47 1011.2
20260503214502 58 201 6.0 15.0 0.00 0.00 0.00 48 1011.3
20260503213004 58 215 10.0 18.0 0.00 0.00 0.00 47 1011.3
20260503211501 57 207 6.0 18.0 0.00 0.00 0.00 48 1011.4
20260503210001 58 236 8.0 15.0 0.00 0.00 0.00 46 1011.4
20260503204559 58 232 2.0 22.0 0.00 0.00 0.00 47 1011.4